Volver al catálogo

FENGYUN 1C DEB

ActivoSSO
NORAD 31029·DEBRIS·🇨🇳 China

Lanzado May 10, 1999 desde Taiyuan Satellite Launch Center

Loading…

Próximos Pases (próximas 24 horas)

TLE

ActualizadoSource: Space-Track

Época: Sep 12, 2026, 16:58 UTC

1 31029U 99025BDX 26255.70695566  .00000566  00000-0  20708-3 0  9991
2 31029  98.8369 164.2361 0088685 349.6048  72.7540 14.34791178 17189

Sigue FENGYUN 1C DEB en tiempo real con AllMySat

Download on the App Store